FW7485 Weather Reports


Display with metric or nautical units.
time (UTC)temp
F
wind
direction
speed
MPH
gust
MPH
rain 1hr
in
rain 24hr
in
rain mn
in
humidity
%
barometer
mb
20210917230542 73 301 3.0 8.0 0.00 0.00 0.00 63 1016.2
20210917230032 74 256 4.0 8.0 0.00 0.00 0.00 63 1016.2
20210917225531 73 238 3.0 9.0 0.00 0.00 0.00 63 1016.2
20210917225020 73 255 3.0 9.0 0.00 0.00 0.00 64 1016.3
20210917224538 73 347 4.0 8.0 0.00 0.00 0.00 63 1016.4
20210917224020 73 260 2.0 9.0 0.00 0.00 0.00 63 1016.5
20210917223528 73 264 4.0 9.0 0.00 0.00 0.00 63 1016.5
20210917223044 74 300 4.0 10.0 0.00 0.00 0.00 62 1016.5
20210917222556 74 286 4.0 10.0 0.00 0.00 0.00 61 1016.6
20210917222019 74 288 3.0 10.0 0.00 0.00 0.00 63 1016.6
20210917221555 73 231 5.0 12.0 0.00 0.00 0.00 63 1016.7
20210917221020 74 309 5.0 12.0 0.00 0.00 0.00 61 1016.7
20210917220520 73 15 3.0 9.0 0.00 0.00 0.00 62 1016.5
20210917220036 73 268 4.0 8.0 0.00 0.00 0.00 63 1016.6
20210917215521 74 276 5.0 9.0 0.00 0.00 0.00 61 1016.7
20210917215021 74 270 5.0 11.0 0.00 0.00 0.00 61 1016.8
20210917214551 74 297 4.0 11.0 0.00 0.00 0.00 61 1016.7
20210917214019 74 259 4.0 8.0 0.00 0.00 0.00 62 1016.9
20210917213519 74 335 3.0 8.0 0.00 0.00 0.00 61 1017.0
20210917213200 74 260 4.0 8.0 0.00 0.00 0.00 61 1017.0
20210917212525 74 225 3.0 9.0 0.00 0.00 0.00 62 1017.0
20210917212019 74 268 5.0 9.0 0.00 0.00 0.00 62 1017.0
20210917211552 74 276 3.0 9.0 0.00 0.00 0.00 61 1017.2
20210917211026 74 253 4.0 9.0 0.00 0.00 0.00 62 1017.0
20210917210520 74 299 4.0 9.0 0.00 0.00 0.00 62 1017.0
20210917210050 74 253 4.0 9.0 0.00 0.00 0.00 62 1017.0
20210917205534 74 253 3.0 9.0 0.00 0.00 0.00 62 1017.0
20210917205035 74 264 5.0 9.0 0.00 0.00 0.00 62 1017.0
20210917204551 73 273 2.0 9.0 0.00 0.00 0.00 63 1017.1
20210917204020 74 251 3.0 8.0 0.00 0.00 0.00 63 1017.3
20210917203520 73 295 5.0 8.0 0.00 0.00 0.00 63 1017.2
20210917203109 74 6 3.0 8.0 0.00 0.00 0.00 63 1017.2
20210917202529 74 344 3.0 9.0 0.00 0.00 0.00 61 1017.1
20210917202019 73 288 4.0 9.0 0.00 0.00 0.00 62 1017.2
20210917201537 73 312 4.0 10.0 0.00 0.00 0.00 62 1017.1
20210917201021 73 238 4.0 10.0 0.00 0.00 0.00 64 1017.2
20210917200524 73 307 5.0 12.0 0.00 0.00 0.00 64 1017.3
20210917200039 73 230 6.0 12.0 0.00 0.00 0.00 62 1017.3
20210917195519 73 245 4.0 10.0 0.00 0.00 0.00 63 1017.3
20210917195026 73 328 5.0 10.0 0.00 0.00 0.00 64 1017.3
20210917194547 73 243 5.0 10.0 0.00 0.00 0.00 63 1017.2
20210917194025 73 267 4.0 10.0 0.00 0.00 0.00 64 1017.2
20210917193553 73 259 4.0 8.0 0.00 0.00 0.00 64 1017.3
20210917193035 74 282 4.0 8.0 0.00 0.00 0.00 63 1017.3
20210917192536 73 289 3.0 7.0 0.00 0.00 0.00 63 1017.4
20210917192031 73 255 3.0 9.0 0.00 0.00 0.00 64 1017.4
20210917191530 73 349 5.0 9.0 0.00 0.00 0.00 64 1017.3
20210917191022 73 281 4.0 10.0 0.00 0.00 0.00 65 1017.2
20210917190537 73 158 5.0 10.0 0.00 0.00 0.00 65 1017.4
20210917190105 73 315 4.0 8.0 0.00 0.00 0.00 64 1017.4
20210917185538 73 248 5.0 7.0 0.00 0.00 0.00 64 1017.4
20210917185019 73 243 2.0 6.0 0.00 0.00 0.00 65 1017.4
20210917184525 73 293 3.0 6.0 0.00 0.00 0.00 66 1017.4
20210917184019 73 174 3.0 6.0 0.00 0.00 0.00 66 1017.5
20210917183519 73 224 2.0 7.0 0.00 0.00 0.00 67 1017.6
20210917183106 72 233 3.0 7.0 0.00 0.00 0.00 67 1017.5
20210917182519 73 256 3.0 7.0 0.00 0.00 0.00 67 1017.6
20210917182031 72 182 3.0 6.0 0.00 0.00 0.00 67 1017.5
20210917181601 72 265 2.0 8.0 0.00 0.00 0.00 68 1017.5
20210917181020 72 167 2.0 8.0 0.00 0.00 0.00 68 1017.3
20210917180538 71 214 3.0 8.0 0.00 0.00 0.00 69 1017.3
20210917180059 71 295 3.0 9.0 0.00 0.00 0.00 69 1017.4
20210917175530 72 246 4.0 9.0 0.00 0.00 0.00 68 1017.4
20210917175020 72 187 3.0 6.0 0.00 0.00 0.00 69 1017.5
20210917174540 71 174 2.0 6.0 0.00 0.00 0.00 70 1017.4
20210917174023 71 208 3.0 7.0 0.00 0.00 0.00 70 1017.6
20210917173522 71 221 4.0 7.0 0.00 0.00 0.00 70 1017.7
20210917173055 71 199 2.0 7.0 0.00 0.00 0.00 70 1017.7
20210917172525 71 224 3.0 6.0 0.00 0.00 0.00 71 1017.6
20210917172021 70 200 2.0 5.0 0.00 0.00 0.00 71 1017.6
20210917171615 70 160 2.0 5.0 0.00 0.00 0.00 71 1017.7
20210917171023 70 187 2.0 6.0 0.00 0.00 0.00 72 1017.5
20210917170522 69 83 2.0 6.0 0.00 0.00 0.00 73 1017.4
20210917170033 69 234 1.0 5.0 0.00 0.00 0.00 73 1017.4
20210917165526 69 191 3.0 6.0 0.00 0.00 0.00 75 1017.3
20210917165026 68 157 3.0 6.0 0.00 0.00 0.00 75 1017.2
20210917164529 68 243 2.0 6.0 0.00 0.00 0.00 74 1017.3
20210917164020 68 172 3.0 6.0 0.00 0.00 0.00 75 1017.3
20210917163522 68 167 2.0 5.0 0.00 0.00 0.00 75 1017.1
20210917163058 68 188 1.0 3.0 0.00 0.00 0.00 76 1017.3
20210917162525 67 127 0.0 2.0 0.00 0.00 0.00 77 1017.2
20210917162027 67 110 0.0 2.0 0.00 0.00 0.00 77 1017.2
20210917161539 67 219 1.0 2.0 0.00 0.00 0.00 77 1017.2
20210917161022 66 91 0.0 3.0 0.00 0.00 0.00 78 1017.2
20210917160529 66 0 1.0 4.0 0.00 0.00 0.00 78 1017.1
20210917160044 66 218 1.0 4.0 0.00 0.00 0.00 78 1017.1
20210917155528 66 226 0.0 4.0 0.00 0.00 0.00 79 1016.9
20210917155039 66 239 1.0 4.0 0.00 0.00 0.00 79 1016.8
20210917154539 66 0 0.0 3.0 0.00 0.00 0.00 80 1016.8
20210917154023 65 112 1.0 3.0 0.00 0.00 0.00 80 1016.8
20210917153522 65 94 1.0 3.0 0.00 0.00 0.00 79 1016.7
20210917153037 65 102 0.0 1.0 0.00 0.00 0.00 80 1016.6
20210917152520 65 89 0.0 2.0 0.00 0.00 0.00 80 1016.6
20210917152022 65 0 1.0 3.0 0.00 0.00 0.00 80 1016.5
20210917151530 65 22 0.0 3.0 0.00 0.00 0.00 81 1016.6
20210917151021 65 70 1.0 2.0 0.00 0.00 0.00 81 1016.6
20210917150522 65 96 1.0 2.0 0.00 0.00 0.00 81 1016.5
20210917150054 64 0 0.0 3.0 0.00 0.00 0.00 81 1016.4
20210917145520 64 161 0.0 3.0 0.00 0.00 0.00 82 1016.3
20210917145019 64 0 1.0 3.0 0.00 0.00 0.00 81 1016.3
20210917144555 64 202 0.0 3.0 0.00 0.00 0.00 82 1016.3
20210917144031 64 238 1.0 3.0 0.00 0.00 0.00 82 1016.1
20210917143539 64 0 0.0 1.0 0.00 0.00 0.00 83 1016.0
20210917143045 64 0 0.0 1.0 0.00 0.00 0.00 83 1016.0
20210917142522 64 0 0.0 1.0 0.00 0.00 0.00 83 1015.9
20210917142024 64 84 0.0 2.0 0.00 0.00 0.00 83 1015.8
20210917141603 63 114 0.0 2.0 0.00 0.00 0.00 83 1015.7
20210917141021 63 129 0.0 2.0 0.00 0.00 0.00 83 1015.7
20210917140534 63 133 0.0 5.0 0.00 0.00 0.00 83 1015.6
20210917140121 63 150 2.0 5.0 0.00 0.00 0.00 83 1015.5
20210917135519 63 220 1.0 3.0 0.00 0.00 0.00 84 1015.5
20210917135026 63 0 0.0 1.0 0.00 0.00 0.00 84 1015.4
20210917134605 63 0 0.0 2.0 0.00 0.00 0.00 83 1015.3
20210917134022 63 0 0.0 3.0 0.00 0.00 0.00 83 1015.2
20210917133521 63 0 1.0 3.0 0.00 0.00 0.00 83 1015.2
20210917133122 63 222 1.0 3.0 0.00 0.00 0.00 84 1015.2
20210917132522 63 207 0.0 1.0 0.00 0.00 0.00 84 1015.1
20210917132054 63 0 0.0 1.0 0.00 0.00 0.00 84 1015.0
20210917131554 63 36 0.0 1.0 0.00 0.00 0.00 84 1014.9
20210917131021 63 0 0.0 2.0 0.00 0.00 0.00 84 1014.8
20210917130535 63 316 0.0 2.0 0.00 0.00 0.00 84 1014.9
20210917130045 63 228 1.0 4.0 0.00 0.00 0.00 84 1014.7
20210917125522 63 231 1.0 4.0 0.00 0.00 0.00 84 1014.8
20210917125021 63 165 1.0 3.0 0.00 0.00 0.00 84 1014.6
20210917124620 63 98 0.0 3.0 0.00 0.00 0.00 84 1014.5
20210917124046 63 118 1.0 3.0 0.00 0.00 0.00 84 1014.4
20210917123529 63 102 1.0 3.0 0.00 0.00 0.00 83 1014.3
20210917123027 63 92 0.0 2.0 0.00 0.00 0.00 84 1014.3
20210917122522 63 108 0.0 2.0 0.00 0.00 0.00 84 1014.3
20210917122022 63 0 0.0 1.0 0.00 0.00 0.00 84 1014.3
20210917121537 63 252 0.0 1.0 0.00 0.00 0.00 84 1014.3
20210917121035 63 251 0.0 1.0 0.00 0.00 0.00 84 1014.2
20210917120525 63 251 0.0 1.0 0.00 0.00 0.00 84 1014.1
20210917120027 63 236 0.0 2.0 0.00 0.00 0.00 84 1014.1
20210917115528 63 0 0.0 4.0 0.00 0.00 0.00 84 1014.0
20210917115053 63 120 0.0 4.0 0.00 0.00 0.00 83 1014.1
20210917114553 63 78 0.0 2.0 0.00 0.00 0.00 84 1014.0
20210917114032 63 350 0.0 2.0 0.00 0.00 0.00 84 1014.1
20210917113521 63 91 0.0 2.0 0.00 0.00 0.00 84 1013.9
20210917113038 63 0 1.0 3.0 0.00 0.00 0.00 83 1014.0
20210917112519 63 0 1.0 3.0 0.00 0.00 0.00 83 1014.0
20210917112021 64 14 1.0 2.0 0.00 0.00 0.00 83 1014.0
20210917111522 64 295 0.0 2.0 0.00 0.00 0.00 83 1014.0
20210917111021 63 319 0.0 1.0 0.00 0.00 0.00 83 1014.0
20210917110529 63 0 0.0 3.0 0.00 0.00 0.00 83 1014.0
20210917110036 64 0 0.0 4.0 0.00 0.00 0.00 83 1014.0
20210917105519 64 40 1.0 4.0 0.00 0.00 0.00 83 1014.0
20210917105021 64 90 2.0 4.0 0.00 0.00 0.00 83 1014.1
20210917104634 64 66 0.0 2.0 0.00 0.00 0.00 83 1014.0
20210917104026 63 0 0.0 3.0 0.00 0.00 0.00 83 1014.0
20210917103527 63 120 1.0 3.0 0.00 0.00 0.00 83 1014.0
20210917103052 64 98 1.0 3.0 0.00 0.00 0.00 83 1014.0
20210917102520 64 0 0.0 2.0 0.00 0.00 0.00 83 1014.0
20210917102020 64 0 0.0 2.0 0.00 0.00 0.00 83 1014.0
20210917101551 64 354 0.0 2.0 0.00 0.00 0.00 83 1014.1
20210917101019 64 354 0.0 2.0 0.00 0.00 0.00 83 1014.0
20210917100522 64 338 0.0 3.0 0.00 0.00 0.00 83 1014.0
20210917100056 63 0 0.0 3.0 0.00 0.00 0.00 83 1014.1
20210917095522 64 326 1.0 2.0 0.00 0.00 0.00 83 1014.1
20210917095028 64 0 1.0 3.0 0.00 0.00 0.00 83 1014.3
20210917094541 64 299 0.0 3.0 0.00 0.00 0.00 83 1014.2
20210917094019 64 280 1.0 3.0 0.00 0.00 0.00 83 1014.1
20210917093524 64 0 0.0 2.0 0.00 0.00 0.00 83 1014.1
20210917093026 64 296 0.0 2.0 0.00 0.00 0.00 83 1014.3
20210917092521 64 251 1.0 3.0 0.00 0.00 0.00 83 1014.1
20210917092027 64 0 0.0 3.0 0.00 0.00 0.00 83 1014.1
20210917091547 64 313 1.0 2.0 0.00 0.00 0.00 83 1014.1
20210917091025 64 299 1.0 2.0 0.00 0.00 0.00 83 1014.2
20210917090524 64 285 1.0 2.0 0.00 0.00 0.00 84 1014.1
20210917090031 63 0 0.0 2.0 0.00 0.00 0.00 84 1014.3
20210917085530 63 0 0.0 2.0 0.00 0.00 0.00 84 1014.3
20210917085021 63 245 0.0 2.0 0.00 0.00 0.00 84 1014.4
20210917084610 63 0 0.0 2.0 0.00 0.00 0.00 84 1014.3
20210917084025 63 90 0.0 2.0 0.00 0.00 0.00 84 1014.2
20210917083518 63 0 0.0 2.0 0.00 0.00 0.00 84 1014.0
20210917083030 63 0 0.0 2.0 0.00 0.00 0.00 84 1013.9
20210917082529 63 349 1.0 2.0 0.00 0.00 0.00 84 1013.9
20210917082020 63 351 0.0 2.0 0.00 0.00 0.00 84 1013.9
20210917081541 63 0 0.0 1.0 0.00 0.00 0.00 84 1013.8
20210917081019 63 352 0.0 1.0 0.00 0.00 0.00 84 1013.8
20210917080520 63 0 0.0 1.0 0.00 0.00 0.00 84 1013.8
20210917080047 63 294 0.0 4.0 0.00 0.00 0.00 84 1013.8
20210917075522 63 288 2.0 4.0 0.00 0.00 0.00 84 1013.7
20210917075028 63 309 1.0 4.0 0.00 0.00 0.00 84 1013.8
20210917074607 63 6 1.0 3.0 0.00 0.00 0.00 84 1013.7
20210917074019 63 330 1.0 3.0 0.00 0.00 0.00 84 1013.7
20210917073529 63 356 1.0 3.0 0.00 0.00 0.00 84 1013.8
20210917073042 63 17 1.0 2.0 0.00 0.00 0.00 84 1013.7
20210917072519 63 48 1.0 2.0 0.00 0.00 0.00 84 1013.6
20210917072021 63 0 0.0 4.0 0.00 0.00 0.00 84 1013.6
20210917071532 63 70 1.0 4.0 0.00 0.00 0.00 84 1013.6
20210917071021 63 50 1.0 2.0 0.00 0.00 0.00 84 1013.5
20210917070521 63 342 0.0 1.0 0.00 0.00 0.00 84 1013.7
20210917070051 63 295 0.0 1.0 0.00 0.00 0.00 84 1013.7
20210917065529 63 0 0.0 2.0 0.00 0.00 0.00 84 1013.6
20210917065035 63 295 1.0 2.0 0.00 0.00 0.00 84 1013.6
20210917064532 63 0 0.0 2.0 0.00 0.00 0.00 84 1013.6
20210917064020 63 21 0.0 2.0 0.00 0.00 0.00 84 1013.7
20210917063520 63 0 0.0 2.0 0.00 0.00 0.00 85 1013.7
20210917063035 63 302 1.0 2.0 0.00 0.00 0.00 85 1013.7
20210917062520 63 335 0.0 1.0 0.00 0.00 0.00 85 1013.6
20210917062027 63 9 0.0 1.0 0.00 0.00 0.00 85 1013.6
20210917061544 63 328 0.0 2.0 0.00 0.00 0.00 85 1013.5
20210917061020 63 18 0.0 2.0 0.00 0.00 0.00 85 1013.5
20210917060520 63 349 0.0 2.0 0.00 0.00 0.00 85 1013.6
20210917060040 63 359 0.0 2.0 0.00 0.00 0.00 85 1013.5
20210917055535 63 11 1.0 2.0 0.00 0.00 0.00 85 1013.6
20210917055021 63 343 0.0 2.0 0.00 0.00 0.00 85 1013.5
20210917054522 63 0 0.0 0.0 0.00 0.00 0.00 85 1013.6
20210917054021 63 0 0.0 0.0 0.00 0.00 0.00 85 1013.5
20210917053519 63 0 0.0 0.0 0.00 0.00 0.00 85 1013.5
20210917053039 63 0 0.0 0.0 0.00 0.00 0.00 85 1013.5
20210917052545 63 0 0.0 0.0 0.00 0.00 0.00 85 1013.5
20210917052021 63 0 0.0 0.0 0.00 0.00 0.00 84 1013.6
20210917051541 63 0 0.0 3.0 0.00 0.00 0.00 84 1013.7
20210917051024 63 344 1.0 3.0 0.00 0.00 0.00 84 1013.6
20210917050533 63 351 1.0 3.0 0.00 0.00 0.00 84 1013.6
20210917050100 63 344 1.0 4.0 0.00 0.00 0.00 84 1013.7
20210917045534 63 360 2.0 4.0 0.00 0.00 0.00 84 1013.7
20210917045019 63 0 0.0 4.0 0.00 0.00 0.00 84 1013.7
20210917044539 63 335 2.0 4.0 0.00 0.00 0.00 84 1013.8
20210917044020 63 345 2.0 3.0 0.00 0.00 0.00 84 1013.8
20210917043525 63 304 1.0 5.0 0.00 0.00 0.00 84 1013.8
20210917043051 63 291 1.0 5.0 0.00 0.00 0.00 84 1013.7
20210917042524 63 19 1.0 5.0 0.00 0.00 0.00 84 1013.8
20210917042020 63 18 1.0 5.0 0.00 0.00 0.00 84 1013.8
20210917041548 63 4 1.0 4.0 0.00 0.00 0.00 83 1013.7
20210917041020 64 330 2.0 4.0 0.00 0.00 0.00 83 1013.7
20210917040534 64 356 1.0 4.0 0.00 0.00 0.00 83 1013.7
20210917040036 64 340 2.0 4.0 0.00 0.00 0.00 83 1013.8
20210917035519 64 316 2.0 4.0 0.00 0.00 0.00 83 1013.6
20210917035022 64 297 1.0 4.0 0.00 0.00 0.00 83 1013.7
20210917034542 64 286 2.0 4.0 0.00 0.00 0.00 83 1013.7
20210917034023 64 282 2.0 4.0 0.00 0.00 0.00 83 1013.6
20210917033554 64 278 2.0 5.0 0.00 0.00 0.00 83 1013.5
20210917033108 64 299 2.0 5.0 0.00 0.00 0.00 83 1013.5
20210917032520 64 294 2.0 5.0 0.00 0.00 0.00 83 1013.4
20210917032030 64 261 1.0 4.0 0.00 0.00 0.00 83 1013.4
20210917031548 64 290 2.0 5.0 0.00 0.00 0.00 83 1013.2
20210917031034 64 229 2.0 5.0 0.00 0.00 0.00 83 1013.1
20210917030522 64 251 2.0 6.0 0.00 0.00 0.00 83 1013.1
20210917030038 64 271 3.0 6.0 0.00 0.00 0.00 83 1013.0
20210917025522 64 282 3.0 6.0 0.00 0.00 0.00 83 1013.0
20210917025020 64 281 3.0 6.0 0.00 0.00 0.00 82 1012.8
20210917024612 64 250 2.0 6.0 0.00 0.00 0.00 82 1012.9
20210917024021 64 285 3.0 6.0 0.00 0.00 0.00 82 1012.7
20210917023522 64 303 3.0 7.0 0.00 0.00 0.00 82 1012.5
20210917023112 64 233 4.0 8.0 0.00 0.00 0.00 81 1012.5
20210917022520 64 255 2.0 8.0 0.00 0.00 0.00 82 1012.4
20210917022026 64 242 3.0 8.0 0.00 0.00 0.00 81 1012.4
20210917021545 64 283 3.0 8.0 0.00 0.00 0.00 81 1012.3
20210917021020 65 277 4.0 8.0 0.00 0.00 0.00 81 1012.3
20210917020533 65 275 4.0 8.0 0.00 0.00 0.00 80 1012.2
20210917020101 65 297 4.0 8.0 0.00 0.00 0.00 80 1012.1
20210917015527 65 252 4.0 9.0 0.00 0.00 0.00 79 1012.1
20210917015027 66 274 3.0 9.0 0.00 0.00 0.00 79 1012.0
20210917014555 66 277 3.0 9.0 0.00 0.00 0.00 78 1012.0
20210917014020 66 253 3.0 9.0 0.00 0.00 0.00 78 1011.9
20210917013526 67 251 4.0 8.0 0.00 0.00 0.00 77 1012.0
20210917013047 67 280 3.0 6.0 0.00 0.00 0.00 76 1011.8
20210917012525 67 280 4.0 7.0 0.00 0.00 0.00 76 1011.8
20210917012027 68 288 3.0 9.0 0.00 0.00 0.00 75 1011.9
20210917011543 68 256 5.0 9.0 0.00 0.00 0.00 75 1011.8
20210917011035 68 275 4.0 9.0 0.00 0.00 0.00 74 1011.8
20210917010519 69 243 4.0 9.0 0.00 0.00 0.00 73 1012.0
20210917010023 68 284 4.0 8.0 0.00 0.00 0.00 74 1011.9
20210917005528 69 244 4.0 8.0 0.00 0.00 0.00 74 1011.9
20210917005021 69 277 5.0 10.0 0.00 0.00 0.00 74 1012.0
20210917004548 69 253 5.0 11.0 0.00 0.00 0.00 73 1011.9
20210917004019 69 295 5.0 11.0 0.00 0.00 0.00 72 1012.1
20210917003528 69 311 4.0 9.0 0.00 0.00 0.00 72 1012.1
20210917003035 70 274 4.0 10.0 0.00 0.00 0.00 72 1012.0
20210917002520 69 274 5.0 10.0 0.00 0.00 0.00 73 1012.0
20210917002026 69 267 5.0 10.0 0.00 0.00 0.00 73 1012.0
20210917001538 70 283 5.0 9.0 0.00 0.00 0.00 71 1012.1
20210917001027 70 265 4.0 10.0 0.00 0.00 0.00 72 1012.0
20210917000518 70 255 5.0 11.0 0.00 0.00 0.00 72 1012.0
20210917000101 70 292 7.0 11.0 0.00 0.00 0.00 71 1011.9
20210916235553 70 283 5.0 8.0 0.00 0.00 0.00 71 1012.0
20210916235037 70 264 4.0 12.0 0.00 0.00 0.00 71 1012.1
20210916234614 70 280 6.0 12.0 0.00 0.00 0.00 71 1012.1
20210916234019 70 276 4.0 11.0 0.00 0.00 0.00 70 1012.0
20210916233527 70 300 5.0 11.0 0.00 0.00 0.00 71 1012.1
20210916233056 71 296 5.0 10.0 0.00 0.00 0.00 70 1012.0
20210916232520 71 260 5.0 11.0 0.00 0.00 0.00 70 1012.1
20210916232034 71 259 5.0 11.0 0.00 0.00 0.00 69 1012.0
20210916231533 71 247 6.0 11.0 0.00 0.00 0.00 69 1012.0
20210916231026 72 312 4.0 9.0 0.00 0.00 0.00 68 1012.0